When you browse on this site, cookies collect data to enhance your experience and personalize the content and advertising you see.
Visit our Privacy Policy to learn more. By continuing to use the site, you agree to this use of cookies and data.
  • In Spain
  • List of Countries
  • For 7 days
  • Water Temperature
  • Satellite Maps
  • Weather Map
  • Weather Widgets
  • user-avatar
    Login

    Hourly Weather Uige

    Today, 24 July, Wednesday

    Time Temperature Precipitation Wind Pressure Humidity
    00:00 +20°C° 0 mm 1 mps 691 mmHg 68%
    01:00 +19°C° 0 mm 1 mps 691 mmHg 70%
    02:00 +19°C° 0 mm 1 mps 690 mmHg 72%
    03:00 +16°C° 0 mm 0 mps 690 mmHg 75%
    04:00 +15°C° 0 mm 0 mps 690 mmHg 77%
    05:00 +16°C° 0 mm 0 mps 690 mmHg 75%
    06:00 +16°C° 0 mm 0 mps 690 mmHg 73%
    07:00 +17°C° 0 mm 0 mps 691 mmHg 72%
    08:00 +23°C° 0 mm 1 mps 692 mmHg 57%
    09:00 +28°C° 0 mm 1 mps 693 mmHg 43%
    10:00 +32°C° 0 mm 1 mps 694 mmHg 28%
    11:00 +34°C° 0 mm 1 mps 693 mmHg 23%
    12:00 +36°C° 0 mm 1 mps 693 mmHg 18%
    13:00 +39°C° 0 mm 2 mps 692 mmHg 13%
    14:00 +38°C° 0 mm 2 mps 691 mmHg 13%
    15:00 +38°C° 0 mm 2 mps 691 mmHg 13%
    16:00 +37°C° 0 mm 2 mps 690 mmHg 13%
    17:00 +33°C° 0 mm 1 mps 690 mmHg 19%
    18:00 +29°C° 0 mm 1 mps 690 mmHg 24%
    19:00 +26°C° 0 mm 1 mps 690 mmHg 30%
    20:00 +24°C° 0 mm 1 mps 690 mmHg 38%
    21:00 +23°C° 0 mm 1 mps 691 mmHg 46%
    22:00 +21°C° 0 mm 1 mps 691 mmHg 53%
    23:00 +20°C° 0 mm 1 mps 691 mmHg 63%

    Tomorrow, 25 July, Thursday

    Time Temperature Precipitation Wind Pressure Humidity
    00:00 +17°C° 0 mm 0 mps 691 mmHg 74%
    01:00 +16°C° 0 mm 0 mps 691 mmHg 84%
    02:00 +15°C° 0 mm 0 mps 691 mmHg 87%
    03:00 +16°C° 0 mm 1 mps 690 mmHg 89%
    04:00 +15°C° 0 mm 1 mps 690 mmHg 92%
    05:00 +16°C° 0 mm 1 mps 691 mmHg 90%
    06:00 +18°C° 0 mm 1 mps 691 mmHg 87%
    07:00 +18°C° 0 mm 1 mps 692 mmHg 85%
    08:00 +22°C° 0 mm 1 mps 693 mmHg 67%
    09:00 +27°C° 0 mm 1 mps 693 mmHg 50%
    10:00 +31°C° 0 mm 1 mps 694 mmHg 32%
    11:00 +33°C° 0 mm 1 mps 694 mmHg 26%
    12:00 +35°C° 0 mm 1 mps 693 mmHg 20%
    13:00 +39°C° 0 mm 1 mps 693 mmHg 15%
    14:00 +37°C° 0 mm 1 mps 692 mmHg 14%
    15:00 +38°C° 0 mm 2 mps 691 mmHg 13%
    16:00 +37°C° 0 mm 2 mps 691 mmHg 13%
    17:00 +34°C° 0 mm 2 mps 690 mmHg 19%
    18:00 +29°C° 0 mm 1 mps 690 mmHg 25%
    19:00 +26°C° 0 mm 1 mps 690 mmHg 32%
    20:00 +24°C° 0 mm 1 mps 691 mmHg 41%
    21:00 +22°C° 0 mm 1 mps 691 mmHg 49%
    22:00 +21°C° 0 mm 1 mps 692 mmHg 58%
    23:00 +20°C° 0 mm 1 mps 692 mmHg 66%

    Day after tomorrow, 26 July, Friday

    Time Temperature Precipitation Wind Pressure Humidity
    00:00 +18°C° 0 mm 1 mps 691 mmHg 74%
    01:00 +16°C° 0 mm 1 mps 691 mmHg 82%
    02:00 +16°C° 0 mm 1 mps 691 mmHg 86%
    03:00 +14°C° 0 mm 0 mps 690 mmHg 91%
    04:00 +13°C° 0 mm 0 mps 690 mmHg 95%
    05:00 +14°C° 0 mm 0 mps 691 mmHg 93%
    06:00 +14°C° 0 mm 0 mps 691 mmHg 91%
    07:00 +15°C° 0 mm 0 mps 692 mmHg 89%
    08:00 +19°C° 0 mm 0 mps 693 mmHg 71%
    09:00 +25°C° 0 mm 1 mps 693 mmHg 54%
    10:00 +30°C° 0 mm 1 mps 694 mmHg 36%
    11:00 +32°C° 0 mm 1 mps 694 mmHg 30%
    12:00 +34°C° 0 mm 1 mps 693 mmHg 24%
    13:00 +37°C° 0 mm 2 mps 692 mmHg 18%
    14:00 +37°C° 0 mm 2 mps 692 mmHg 18%
    15:00 +37°C° 0 mm 2 mps 691 mmHg 18%
    16:00 +37°C° 0 mm 2 mps 691 mmHg 17%
    17:00 +32°C° 0 mm 2 mps 690 mmHg 25%
    18:00 +29°C° 0 mm 2 mps 690 mmHg 32%
    19:00 +25°C° 0 mm 1 mps 690 mmHg 39%
    20:00 +23°C° 0 mm 1 mps 691 mmHg 48%
    21:00 +21°C° 0 mm 1 mps 691 mmHg 57%
    22:00 +19°C° 0 mm 1 mps 691 mmHg 67%
    23:00 +18°C° 0 mm 1 mps 691 mmHg 75%

    27 July, Saturday

    Time Temperature Precipitation Wind Pressure Humidity
    00:00 +16°C° 0 mm 1 mps 691 mmHg 83%
    01:00 +15°C° 0 mm 1 mps 691 mmHg 91%
    02:00 +15°C° 0 mm 1 mps 691 mmHg 93%
    03:00 +15°C° 0 mm 1 mps 691 mmHg 94%
    04:00 +15°C° 0 mm 1 mps 691 mmHg 95%
    05:00 +16°C° 0 mm 1 mps 691 mmHg 92%
    06:00 +15°C° 0 mm 0 mps 692 mmHg 89%
    07:00 +16°C° 0 mm 0 mps 692 mmHg 86%
    08:00 +19°C° 0 mm 0 mps 693 mmHg 70%
    09:00 +25°C° 0 mm 1 mps 693 mmHg 54%
    10:00 +29°C° 0 mm 1 mps 694 mmHg 37%
    11:00 +32°C° 0 mm 1 mps 693 mmHg 31%
    12:00 +34°C° 0 mm 1 mps 693 mmHg 24%
    13:00 +37°C° 0 mm 1 mps 692 mmHg 18%
    14:00 +36°C° 0 mm 1 mps 691 mmHg 18%
    15:00 +37°C° 0 mm 2 mps 691 mmHg 18%
    16:00 +36°C° 0 mm 2 mps 690 mmHg 18%
    17:00 +32°C° 0 mm 2 mps 690 mmHg 26%
    18:00 +28°C° 0 mm 2 mps 690 mmHg 33%
    19:00 +25°C° 0 mm 1 mps 690 mmHg 41%
    20:00 +23°C° 0 mm 1 mps 691 mmHg 48%
    21:00 +22°C° 0 mm 1 mps 691 mmHg 55%
    22:00 +20°C° 0 mm 1 mps 691 mmHg 62%
    23:00 +19°C° 0 mm 1 mps 691 mmHg 73%

    28 July, Sunday

    Time Temperature Precipitation Wind Pressure Humidity
    00:00 +16°C° 0 mm 1 mps 691 mmHg 83%
    01:00 +15°C° 0 mm 1 mps 691 mmHg 94%
    02:00 +15°C° 0 mm 1 mps 691 mmHg 94%
    03:00 +15°C° 0 mm 1 mps 691 mmHg 93%
    04:00 +16°C° 0 mm 1 mps 691 mmHg 92%
    05:00 +16°C° 0 mm 1 mps 691 mmHg 91%
    06:00 +16°C° 0 mm 1 mps 691 mmHg 89%
    07:00 +16°C° 0 mm 1 mps 692 mmHg 87%
    08:00 +21°C° 0 mm 1 mps 692 mmHg 74%
    09:00 +24°C° 0 mm 1 mps 693 mmHg 60%
    10:00 +27°C° 0 mm 1 mps 694 mmHg 47%
    11:00 +29°C° 0 mm 1 mps 693 mmHg 39%
    12:00 +31°C° 0 mm 1 mps 693 mmHg 32%
    13:00 +35°C° 0 mm 2 mps 692 mmHg 25%
    14:00 +34°C° 0 mm 2 mps 692 mmHg 25%
    15:00 +34°C° 0 mm 3 mps 691 mmHg 25%
    16:00 +34°C° 0 mm 3 mps 691 mmHg 26%
    17:00 +30°C° 0 mm 3 mps 691 mmHg 34%
    18:00 +27°C° 0 mm 2 mps 691 mmHg 43%
    19:00 +24°C° 0 mm 2 mps 691 mmHg 51%
    20:00 +22°C° 0 mm 1 mps 691 mmHg 58%
    21:00 +21°C° 0 mm 1 mps 692 mmHg 65%
    22:00 +19°C° 0 mm 1 mps 692 mmHg 73%
    23:00 +18°C° 0 mm 1 mps 692 mmHg 79%

    29 July, Monday

    Time Temperature Precipitation Wind Pressure Humidity
    00:00 +16°C° 0 mm 1 mps 691 mmHg 85%
    01:00 +15°C° 0 mm 1 mps 691 mmHg 91%
    02:00 +15°C° 0 mm 1 mps 691 mmHg 93%
    03:00 +15°C° 0 mm 1 mps 691 mmHg 95%
    04:00 +15°C° 0 mm 1 mps 691 mmHg 96%
    05:00 +15°C° 0 mm 1 mps 691 mmHg 94%
    06:00 +16°C° 0 mm 1 mps 692 mmHg 91%
    07:00 +16°C° 0 mm 1 mps 693 mmHg 89%
    08:00 +19°C° 0 mm 1 mps 693 mmHg 80%
    09:00 +21°C° 0 mm 1 mps 693 mmHg 71%
    10:00 +23°C° 0 mm 1 mps 694 mmHg 62%
    11:00 +26°C° 0 mm 1 mps 693 mmHg 52%
    12:00 +29°C° 0 mm 2 mps 693 mmHg 43%
    13:00 +32°C° 0 mm 2 mps 693 mmHg 33%
    14:00 +32°C° 0 mm 2 mps 692 mmHg 33%
    15:00 +31°C° 0 mm 2 mps 691 mmHg 33%
    16:00 +31°C° 0 mm 3 mps 691 mmHg 33%
    17:00 +28°C° 0 mm 2 mps 691 mmHg 40%
    18:00 +26°C° 0 mm 2 mps 691 mmHg 48%
    19:00 +23°C° 0 mm 1 mps 691 mmHg 55%
    20:00 +21°C° 0 mm 1 mps 691 mmHg 62%
    21:00 +20°C° 0 mm 1 mps 691 mmHg 69%
    22:00 +19°C° 0 mm 1 mps 692 mmHg 76%
    23:00 +18°C° 0 mm 1 mps 692 mmHg 82%
    Show more